Location: *
(55.5817°S, 142.4781°W)
Time: 17:13:07
(UTC+00:00)

ACS3 Solar Sail - Visible Passes

Search period start: 15 June 2025 00:00
Search period end: 25 June 2025 00:00
Orbit: 922 x 1017 km, 97.5° (Epoch: 14 June)

Date Brightness Start Highest point End Pass type
(mag) Time Alt. Az. Time Alt. Az. Time Alt. Az.
15 Jun 1.8 03:13:24 10° SSE 03:19:52 87° ENE 03:26:10 10° NNW visible
15 Jun 3.7 04:57:19 10° S 05:02:32 27° SW 05:07:40 10° WNW visible
15 Jun4.811:52:40SSW11:52:40SSW11:39:16Evisible
15 Jun 3.4 13:21:12 10° NNE 13:23:47 26° NE 13:23:47 26° NE visible
15 Jun 3.1 15:05:34 10° NNW 15:08:18 23° NW 15:08:18 23° NW visible
16 Jun 2.7 01:53:33 10° SSE 01:59:08 30° E 02:04:33 10° NNE visible
16 Jun 2.1 03:36:36 10° SSE 03:42:59 70° WSW 03:49:12 10° NNW visible
16 Jun 4.0 05:20:45 10° S 05:25:18 21° SW 05:29:48 10° W visible
16 Jun 3.2 13:44:10 10° NNE 13:46:57 29° NNE 13:46:57 29° NNE visible
16 Jun 3.4 15:29:39 10° NW 15:31:28 17° WNW 15:31:28 17° WNW visible
17 Jun 2.3 02:16:28 10° SSE 02:22:30 42° E 02:28:22 10° NNE visible
17 Jun 2.6 03:59:48 10° S 04:05:59 52° WSW 04:12:01 10° NW visible
17 Jun 4.3 05:44:15 10° S 05:47:58 16° SW 05:51:40 10° WSW visible
17 Jun 4.4 12:25:11 10° ENE 12:25:36 12° ENE 12:25:36 12° ENE visible
17 Jun 3.1 14:07:20 10° N 14:10:07 28° N 14:10:07 28° N visible
17 Jun 3.7 15:54:11 10° WNW 15:54:37 11° WNW 15:54:37 11° WNW visible
18 Jun 2.0 02:39:26 10° SSE 02:45:46 58° E 02:51:54 10° N visible
18 Jun 3.1 04:23:03 10° S 04:28:53 39° WSW 04:34:36 10° NW visible
18 Jun 4.5 06:07:57 10° SSW 06:10:33 13° SW 06:13:08 10° WSW visible
18 Jun 4.1 12:47:39 10° NE 12:48:44 15° NE 12:48:44 15° NE visible
18 Jun 3.2 14:30:43 10° N 14:33:15 25° NNW 14:33:15 25° NNW visible
19 Jun 1.8 03:02:29 10° SSE 03:08:56 79° ENE 03:15:10 10° N visible
19 Jun 3.5 04:46:20 10° S 04:51:42 29° SW 04:56:57 10° WNW visible
19 Jun5.111:41:45SSW11:41:45SSW11:27:22Evisible
19 Jun 3.8 13:10:18 10° NE 13:11:52 19° NE 13:11:52 19° NE visible
19 Jun 3.3 14:54:19 10° NNW 14:56:22 20° NW 14:56:22 20° NW visible
20 Jun 2.8 01:42:41 10° SSE 01:47:59 27° E 01:53:09 10° NE visible
20 Jun 2.0 03:25:35 10° SSE 03:31:59 77° WSW 03:38:11 10° NNW visible
20 Jun 3.9 05:09:39 10° S 05:14:23 23° SW 05:19:04 10° W visible
20 Jun 3.6 13:33:08 10° NNE 13:34:58 21° NNE 13:34:58 21° NNE visible
20 Jun 3.6 15:18:12 10° NW 15:19:29 15° NW 15:19:29 15° NW visible
21 Jun 2.4 02:05:27 10° SSE 02:11:18 37° E 02:17:01 10° NNE visible
21 Jun 2.4 03:48:42 10° S 03:54:55 57° WSW 04:00:58 10° NW visible
21 Jun 4.2 05:33:02 10° S 05:37:01 18° SW 05:40:56 10° W visible
21 Jun 3.5 13:56:09 10° N 13:58:04 21° N 13:58:04 21° N visible
21 Jun 3.8 15:42:29 10° NW 15:42:35 10° NW 15:42:35 10° NW visible
22 Jun 2.0 02:28:19 10° SSE 02:34:32 52° E 02:40:32 10° N visible
22 Jun 2.9 04:11:50 10° S 04:17:45 42° WSW 04:23:32 10° NW visible
22 Jun 4.4 05:56:34 10° S 05:59:32 14° SW 06:02:28 10° WSW visible
22 Jun 4.4 12:36:37 10° NE 12:36:39 10° NE 12:36:39 10° NE visible
22 Jun 3.5 14:19:21 10° N 14:21:09 20° N 14:21:09 20° N visible
23 Jun 1.8 02:51:15 10° SSE 02:57:37 71° E 03:03:47 10° N visible
23 Jun 3.4 04:35:01 10° S 04:40:30 32° WSW 04:45:53 10° WNW visible
23 Jun 4.6 06:20:38 10° SSW 06:21:58 11° SSW 06:23:19 10° SW visible
23 Jun 4.2 12:59:07 10° NE 12:59:42 13° NE 12:59:42 13° NE visible
23 Jun 3.6 14:42:47 10° NNW 14:44:12 17° NNW 14:44:12 17° NNW visible
24 Jun 1.9 03:14:14 10° SSE 03:20:37 85° WSW 03:26:48 10° NNW visible
24 Jun 3.8 04:58:13 10° S 05:03:09 25° SW 05:08:00 10° WNW visible
24 Jun 4.0 13:21:47 10° NNE 13:22:45 15° NNE 13:22:45 15° NNE visible
24 Jun 3.7 15:06:29 10° NNW 15:07:15 13° NW 15:07:15 13° NW visible
